FW6178 Weather Reports


time (UTC)temp
C
wind
direction
speed
KPH
gust
KPH
rain 1hr
cm
rain 24hr
cm
rain mn
cm
humidity
%
barometer
mb
20260503071537 5 0 0.0 0.0 0.00 0.00 0.00 87 1015.8
20260503054537 7 0 0.0 0.0 0.00 0.00 0.00 83 1015.4
20260503053040 8 0 0.0 0.0 0.00 0.00 0.00 83 1015.3
20260503051543 8 0 0.0 0.0 0.00 0.00 0.00 80 1015.2
20260503050041 9 0 0.0 0.0 0.00 0.00 0.00 80 1015.1
20260503044535 9 0 0.0 0.0 0.00 0.00 0.00 83 1015.1
20260503043035 10 0 0.0 0.0 0.00 0.00 0.00 77 1015.1
20260503041536 10 0 0.0 0.0 0.00 0.00 0.00 75 1015.1
20260503040037 11 0 0.0 0.0 0.00 0.00 0.00 74 1015.1
20260503034535 12 0 0.0 0.0 0.00 0.00 0.00 75 1014.9
20260503033054 13 0 0.0 0.0 0.00 0.00 0.00 66 1014.8
20260503031538 14 0 0.0 0.0 0.00 0.00 0.00 61 1014.4
20260503030036 15 0 0.0 1.6 0.00 0.00 0.00 60 1014.4
20260503024535 15 342 0.0 0.0 0.00 0.00 0.00 59 1014.4
20260503023044 17 342 0.0 0.0 0.00 0.00 0.00 56 1014.3
20260503021534 19 0 0.0 0.0 0.00 0.00 0.00 51 1014.0
20260503020040 20 0 0.0 0.0 0.00 0.00 0.00 44 1014.2
20260503014535 21 342 0.0 1.6 0.00 0.00 0.00 49 1014.1
20260503013035 21 0 0.0 1.6 0.00 0.00 0.00 42 1014.1
20260503011545 21 0 0.0 3.2 0.00 0.00 0.00 39 1014.1
20260503010051 22 47 3.2 8.0 0.00 0.00 0.00 36 1014.1
20260503004539 21 66 4.8 8.0 0.00 0.00 0.00 37 1014.5
20260503003036 21 43 3.2 4.8 0.00 0.00 0.00 39 1014.5
20260503001536 21 34 0.0 1.6 0.00 0.00 0.00 42 1014.4
20260503000042 22 0 0.0 4.8 0.00 0.00 0.00 38 1014.4
20260502234536 22 25 1.6 4.8 0.00 0.00 0.00 36 1014.5
20260502233037 22 358 1.6 9.7 0.00 0.00 0.00 35 1014.8
20260502231544 23 46 4.8 11.3 0.00 0.00 0.00 35 1014.7
20260502230036 22 56 4.8 12.9 0.00 0.00 0.00 36 1015.1
20260502224535 22 80 4.8 11.3 0.00 0.00 0.00 37 1015.0
20260502223035 22 32 6.4 9.7 0.00 0.00 0.00 38 1015.2
20260502221534 22 39 4.8 9.7 0.00 0.00 0.00 39 1015.2
20260502220040 22 52 3.2 8.0 0.00 0.00 0.00 36 1015.5
20260502214540 21 69 1.6 9.7 0.00 0.00 0.00 40 1015.6
20260502213036 22 44 4.8 8.0 0.00 0.00 0.00 35 1015.7
20260502211543 22 46 1.6 4.8 0.00 0.00 0.00 33 1015.9
20260502210035 22 91 4.8 8.0 0.00 0.00 0.00 38 1016.0
20260502204540 22 60 3.2 8.0 0.00 0.00 0.00 39 1016.3
20260502203039 22 49 3.2 6.4 0.00 0.00 0.00 40 1016.4
20260502201536 21 93 1.6 8.0 0.00 0.00 0.00 42 1016.5
20260502200042 21 121 3.2 8.0 0.00 0.00 0.00 42 1016.6
20260502194535 20 84 3.2 8.0 0.00 0.00 0.00 42 1016.9
20260502193040 20 51 3.2 8.0 0.00 0.00 0.00 44 1017.2
20260502191540 19 54 4.8 12.9 0.00 0.00 0.00 41 1017.4
20260502190041 18 77 4.8 11.3 0.00 0.00 0.00 42 1017.6
20260502184538 18 51 4.8 11.3 0.00 0.00 0.00 46 1017.7
20260502183035 18 63 4.8 11.3 0.00 0.00 0.00 47 1018.0
20260502181548 17 51 6.4 12.9 0.00 0.00 0.00 47 1018.3
20260502163036 14 69 4.8 12.9 0.00 0.00 0.00 58 1018.9
20260502161536 13 60 4.8 11.3 0.00 0.00 0.00 59 1019.1
20260502151548 11 0 0.0 0.0 0.00 0.00 0.00 70 1019.4
20260502123045 3 0 0.0 0.0 0.00 0.00 0.00 89 1018.5
20260502121534 3 0 0.0 0.0 0.00 0.00 0.00 89 1018.5
20260502114534 3 0 0.0 0.0 0.00 0.00 0.00 89 1018.5
20260502113045 3 0 0.0 0.0 0.00 0.00 0.00 89 1018.5
20260502111546 3 0 0.0 0.0 0.00 0.00 0.00 88 1018.3
20260502110035 3 0 0.0 0.0 0.00 0.00 0.00 87 1018.2
20260502104542 4 0 0.0 0.0 0.00 0.00 0.00 87 1018.3
20260502103034 5 0 0.0 0.0 0.00 0.00 0.00 87 1018.3
20260502101546 5 0 0.0 0.0 0.00 0.00 0.00 86 1018.1
20260502091534 5 0 0.0 0.0 0.00 0.00 0.00 84 1017.9